Content
SEND FEEDBACK

Daily
Averages
Monthly
Summary
United States of America

WESTON, MISSOURI


Home > North America > United States > Missouri
Elevation: 784 feet     Latitude: 39 22N     Longitude: 094 55W

WEATHER
 
SELECT A DAY
Number of Records: 191,721;   Date Range: 1/1/95 - 7/29/14
 
SHARE

PRINT THIS DATA

[ ← Previous Day ]
WEATHER ALMANAC - JANUARY 3, 2013
[ Next Day → ]
[ °C ]   °F
Weather ElementAverageHighLow
Temperature28.4 °F35.6 °F (1:15 pm)21 °F (10:53 pm)
Dewpoint20.5 °F24.1 °F (10:53 am)15.1 °F (10:53 pm)
Humidity72.9 %85 % (7:53 am)56 % (2:53 pm)
Barometer30.38 in30.44 in (6:53 pm)30.28 in (1:53 am)
Wind Speed6 mph10.4 mph (12:53 pm)
Weather ElementAverage
Visibility9.8 mi
Wind DirectionW (268.8 °)

Weather ElementTotal
Precipitation---
Heating Degree Days36.7 (Base 65)
Averaged from 24 records on January 3, 2013
WEATHER CONDITIONS BREAKOUT
WIND DIRECTION BREAKOUT
WEATHER BY HOUR - JANUARY 3, 2013
[ °C ]   °F
Local TimeTemperatureDewpointHumidityBarometerVisibilityWind DirectionWind SpeedGust SpeedPrecipitationEventsConditions
1:53 AM24.1 °F19.9 °F84 %30.28 in9.0 miWSW (240°)5.8 mphPartly Cloudy
2:53 AM25.0 °F19.9 °F81 %30.31 in9.0 miWest (260°)5.8 mphPartly Cloudy
3:53 AM27.0 °F21.9 °F81 %30.31 in10.0 miWest (260°)4.6 mphOvercast
4:53 AM28.0 °F23.0 °F81 %30.31 in10.0 miWest (280°)4.6 mphOvercast
5:53 AM28.0 °F23.0 °F81 %30.31 in10.0 miWest (280°)5.8 mphOvercast
6:53 AM27.0 °F21.9 °F81 %30.33 in10.0 miWSW (250°)5.8 mphPartly Cloudy
7:53 AM25.0 °F21.0 °F85 %30.36 in7.0 miWest (280°)5.8 mphPartly Cloudy
8:53 AM28.0 °F23.0 °F81 %30.39 in9.0 miWest (270°)5.8 mphPartly Cloudy
9:53 AM30.0 °F23.0 °F75 %30.42 in10.0 miWest (280°)6.9 mphMostly Cloudy
10:53 AM30.9 °F24.1 °F76 %30.43 in10.0 miWNW (300°)8.1 mphMostly Cloudy
11:53 AM33.1 °F24.1 °F70 %30.41 in10.0 miNW (310°)8.1 mphMostly Cloudy
12:53 PM35.1 °F24.1 °F64 %30.39 in10.0 miNW (310°)10.4 mphMostly Cloudy
1:15 PM35.6 °F23.0 °F60 %30.35 in10.0 miNNW (330°)9.2 mphScattered Clouds
1:53 PM34.0 °F21.0 °F59 %30.38 in10.0 miNW (320°)10.4 mphScattered Clouds
2:53 PM34.0 °F19.9 °F56 %30.39 in10.0 miWNW (300°)4.6 mphOvercast
3:53 PM32.0 °F19.9 °F61 %30.40 in10.0 miNNW (330°)9.2 mphOvercast
4:53 PM30.9 °F19.9 °F64 %30.41 in10.0 miNNW (340°)6.9 mphOvercast
5:53 PM30.0 °F19.9 °F66 %30.43 in10.0 miNW (310°)5.8 mphOvercast
6:53 PM28.9 °F19.9 °F69 %30.44 in10.0 miNNW (330°)5.8 mphOvercast
7:53 PM26.1 °F18.0 °F71 %30.44 in10.0 miNNW (330°)4.6 mphMostly Cloudy
8:53 PM23.0 °F16.0 °F74 %30.43 in10.0 miNNW (330°)5.8 mphClear
9:53 PM23.0 °F16.0 °F74 %30.43 in10.0 miCalmClear
10:53 PM21.0 °F15.1 °F78 %30.43 in10.0 miCalmClear
11:53 PM21.0 °F15.1 °F78 %30.41 in10.0 miSSW (210°)3.5 mphClear
Hourly data recorded from KMCI, located miles away from Weston, Missouri







STORIES FROM OUR PARTNERS